| time (UTC) | temp C | wind direction | speed KPH | gust KPH | rain 1hr cm | rain 24hr cm | rain mn cm | humidity % | barometer mb |
| 20260506134820 | 8 | 79 | 0.0 | 0.0 | 0.03 | 0.03 | 0.03 | 100 | 1017.9 |
| 20260506134336 | 8 | 79 | 0.0 | 0.0 | 0.03 | 0.03 | 0.03 | 100 | 1017.9 |
| 20260506133832 | 8 | 60 | 0.0 | 0.0 | 0.03 | 0.03 | 0.03 | 100 | 1017.9 |
| 20260506133330 | 8 | 60 | 0.0 | 0.0 | 0.03 | 0.03 | 0.03 | 100 | 1017.8 |
| 20260506132820 | 8 | 356 | 0.0 | 0.0 | 0.03 | 0.03 | 0.03 | 100 | 1017.8 |
| 20260506132322 | 8 | 356 | 0.0 | 3.2 | 0.03 | 0.03 | 0.03 | 100 | 1017.8 |
| 20260506131837 | 8 | 63 | 1.6 | 3.2 | 0.03 | 0.03 | 0.03 | 100 | 1017.6 |
| 20260506131335 | 8 | 50 | 0.0 | 0.0 | 0.03 | 0.03 | 0.03 | 100 | 1017.6 |
| 20260506130807 | 8 | 322 | 0.0 | 0.0 | 0.00 | 0.00 | 0.00 | 100 | 1017.6 |
| 20260506130356 | 8 | 322 | 0.0 | 0.0 | 0.00 | 0.00 | 0.00 | 100 | 1017.7 |
| 20260506125834 | 8 | 322 | 0.0 | 0.0 | 0.00 | 0.00 | 0.00 | 100 | 1017.7 |
| 20260506125327 | 8 | 100 | 0.0 | 0.0 | 0.00 | 0.00 | 0.00 | 100 | 1017.7 |
| 20260506124819 | 8 | 100 | 0.0 | 3.2 | 0.00 | 0.00 | 0.00 | 100 | 1017.9 |
| 20260506124317 | 8 | 328 | 0.0 | 0.0 | 0.00 | 0.00 | 0.00 | 100 | 1017.9 |
| 20260506123817 | 8 | 328 | 0.0 | 0.0 | 0.00 | 0.00 | 0.00 | 100 | 1017.9 |
| 20260506123313 | 8 | 328 | 0.0 | 0.0 | 0.00 | 0.00 | 0.00 | 100 | 1017.7 |
| 20260506122810 | 8 | 328 | 0.0 | 0.0 | 0.00 | 0.00 | 0.00 | 100 | 1017.7 |
| 20260506122314 | 9 | 328 | 0.0 | 0.0 | 0.00 | 0.00 | 0.00 | 100 | 1017.7 |
| 20260506121839 | 9 | 328 | 0.0 | 0.0 | 0.00 | 0.00 | 0.00 | 100 | 1017.8 |
| 20260506121334 | 9 | 58 | 0.0 | 0.0 | 0.00 | 0.00 | 0.00 | 100 | 1017.8 |
| 20260506120829 | 9 | 58 | 0.0 | 0.0 | 0.00 | 0.00 | 0.00 | 100 | 1017.8 |
| 20260506120323 | 9 | 58 | 0.0 | 0.0 | 0.00 | 0.00 | 0.00 | 100 | 1017.7 |
| 20260506115826 | 9 | 47 | 0.0 | 0.0 | 0.00 | 0.00 | 0.00 | 100 | 1017.7 |
| 20260506115320 | 9 | 19 | 0.0 | 3.2 | 0.00 | 0.00 | 0.00 | 100 | 1017.7 |
| 20260506114838 | 9 | 72 | 0.0 | 3.2 | 0.00 | 0.00 | 0.00 | 100 | 1017.4 |
| 20260506114353 | 9 | 99 | 0.0 | 3.2 | 0.00 | 0.00 | 0.00 | 100 | 1017.4 |
| 20260506113842 | 9 | 99 | 0.0 | 3.2 | 0.00 | 0.00 | 0.00 | 100 | 1017.4 |
| 20260506113358 | 9 | 99 | 0.0 | 0.0 | 0.00 | 0.00 | 0.00 | 100 | 1017.3 |
| 20260506112829 | 9 | 99 | 0.0 | 0.0 | 0.00 | 0.00 | 0.00 | 100 | 1017.3 |
| 20260506112320 | 9 | 99 | 0.0 | 0.0 | 0.00 | 0.00 | 0.00 | 100 | 1017.3 |
| 20260506111848 | 9 | 99 | 0.0 | 0.0 | 0.00 | 0.00 | 0.00 | 100 | 1017.2 |
| 20260506111327 | 9 | 99 | 0.0 | 0.0 | 0.00 | 0.00 | 0.00 | 100 | 1017.2 |
| 20260506110826 | 9 | 99 | 0.0 | 0.0 | 0.00 | 0.00 | 0.00 | 100 | 1017.2 |
| 20260506110322 | 9 | 99 | 0.0 | 0.0 | 0.00 | 0.00 | 0.00 | 100 | 1017.0 |
| 20260506105823 | 9 | 99 | 0.0 | 0.0 | 0.00 | 0.00 | 0.00 | 100 | 1017.0 |
| 20260506105334 | 9 | 99 | 0.0 | 0.0 | 0.00 | 0.00 | 0.00 | 100 | 1017.0 |
| 20260506104858 | 9 | 99 | 0.0 | 0.0 | 0.00 | 0.00 | 0.00 | 100 | 1016.8 |
| 20260506104332 | 9 | 99 | 0.0 | 0.0 | 0.00 | 0.00 | 0.00 | 100 | 1016.8 |
| 20260506103833 | 9 | 99 | 0.0 | 0.0 | 0.00 | 0.00 | 0.00 | 100 | 1016.8 |
| 20260506103313 | 9 | 99 | 0.0 | 0.0 | 0.00 | 0.00 | 0.00 | 100 | 1016.5 |
| 20260506102834 | 9 | 99 | 0.0 | 1.6 | 0.00 | 0.00 | 0.00 | 100 | 1016.5 |
| 20260506102311 | 9 | 99 | 0.0 | 3.2 | 0.00 | 0.00 | 0.00 | 100 | 1016.5 |
| 20260506101826 | 9 | 99 | 0.0 | 3.2 | 0.00 | 0.00 | 0.00 | 100 | 1016.4 |
| 20260506101324 | 9 | 99 | 0.0 | 3.2 | 0.00 | 0.00 | 0.00 | 100 | 1016.4 |
| 20260506100838 | 9 | 97 | 0.0 | 3.2 | 0.00 | 0.00 | 0.00 | 100 | 1016.4 |
| 20260506100348 | 9 | 95 | 0.0 | 3.2 | 0.00 | 0.00 | 0.00 | 100 | 1016.5 |
| 20260506095835 | 9 | 100 | 0.0 | 1.6 | 0.00 | 0.00 | 0.00 | 100 | 1016.5 |
| 20260506095307 | 9 | 100 | 0.0 | 1.6 | 0.00 | 0.00 | 0.00 | 100 | 1016.5 |
| 20260506094814 | 9 | 72 | 0.0 | 1.6 | 0.00 | 0.00 | 0.00 | 100 | 1016.4 |
| 20260506094329 | 9 | 310 | 0.0 | 1.6 | 0.00 | 0.00 | 0.00 | 100 | 1016.4 |
| 20260506093828 | 9 | 310 | 0.0 | 3.2 | 0.00 | 0.00 | 0.00 | 100 | 1016.4 |
| 20260506093320 | 9 | 310 | 0.0 | 3.2 | 0.00 | 0.00 | 0.00 | 100 | 1016.5 |
| 20260506092809 | 9 | 310 | 0.0 | 3.2 | 0.00 | 0.00 | 0.00 | 100 | 1016.5 |
| 20260506092353 | 9 | 310 | 0.0 | 0.0 | 0.00 | 0.00 | 0.00 | 100 | 1016.5 |
| 20260506091829 | 9 | 310 | 0.0 | 0.0 | 0.00 | 0.00 | 0.00 | 100 | 1016.4 |
| 20260506091354 | 9 | 310 | 0.0 | 0.0 | 0.00 | 0.00 | 0.00 | 100 | 1016.4 |
| 20260506090811 | 9 | 310 | 0.0 | 0.0 | 0.00 | 0.00 | 0.00 | 100 | 1016.4 |
| 20260506090329 | 9 | 310 | 0.0 | 0.0 | 0.00 | 0.00 | 0.00 | 100 | 1016.4 |
| 20260506085828 | 9 | 310 | 0.0 | 0.0 | 0.00 | 0.00 | 0.00 | 100 | 1016.4 |
| 20260506085317 | 9 | 310 | 0.0 | 0.0 | 0.00 | 0.00 | 0.00 | 100 | 1016.4 |
| 20260506084851 | 9 | 310 | 0.0 | 0.0 | 0.00 | 0.00 | 0.00 | 100 | 1016.4 |
| 20260506084322 | 9 | 310 | 0.0 | 0.0 | 0.00 | 0.00 | 0.00 | 100 | 1016.4 |
| 20260506083901 | 9 | 310 | 0.0 | 0.0 | 0.00 | 0.00 | 0.00 | 100 | 1016.4 |
| 20260506083310 | 9 | 310 | 0.0 | 0.0 | 0.00 | 0.00 | 0.00 | 100 | 1016.4 |
| 20260506082815 | 9 | 310 | 0.0 | 0.0 | 0.00 | 0.00 | 0.00 | 100 | 1016.4 |
| 20260506082355 | 9 | 310 | 0.0 | 3.2 | 0.00 | 0.00 | 0.00 | 100 | 1016.4 |
| 20260506081810 | 9 | 310 | 0.0 | 3.2 | 0.00 | 0.00 | 0.00 | 100 | 1016.3 |
| 20260506081335 | 9 | 310 | 0.0 | 3.2 | 0.00 | 0.00 | 0.00 | 100 | 1016.3 |
| 20260506080821 | 9 | 283 | 0.0 | 0.0 | 0.00 | 0.00 | 0.00 | 100 | 1016.3 |
| 20260506080328 | 9 | 239 | 0.0 | 0.0 | 0.00 | 0.00 | 0.00 | 100 | 1016.1 |
| 20260506073336 | 9 | 239 | 0.0 | 0.0 | 0.00 | 0.00 | 0.00 | 100 | 1015.8 |
| 20260506072830 | 9 | 239 | 0.0 | 0.0 | 0.00 | 0.00 | 0.00 | 100 | 1015.8 |
| 20260506072321 | 9 | 239 | 0.0 | 0.0 | 0.00 | 0.00 | 0.00 | 100 | 1015.8 |
| 20260506071836 | 8 | 239 | 0.0 | 0.0 | 0.00 | 0.00 | 0.00 | 100 | 1015.8 |
| 20260506071331 | 8 | 239 | 0.0 | 0.0 | 0.00 | 0.00 | 0.00 | 100 | 1015.8 |
| 20260506070827 | 8 | 239 | 0.0 | 0.0 | 0.00 | 0.00 | 0.00 | 100 | 1015.8 |
| 20260506070316 | 8 | 239 | 0.0 | 0.0 | 0.00 | 0.00 | 0.00 | 100 | 1015.7 |
| 20260506062335 | 8 | 239 | 0.0 | 0.0 | 0.00 | 0.00 | 0.00 | 100 | 1015.5 |
| 20260506061808 | 8 | 239 | 0.0 | 0.0 | 0.00 | 0.00 | 0.00 | 99 | 1015.5 |
| 20260506061331 | 8 | 239 | 0.0 | 0.0 | 0.00 | 0.00 | 0.00 | 99 | 1015.5 |
| 20260506060815 | 8 | 239 | 0.0 | 0.0 | 0.00 | 0.00 | 0.00 | 99 | 1015.5 |
| 20260506060338 | 8 | 239 | 0.0 | 0.0 | 0.00 | 0.00 | 0.00 | 99 | 1015.5 |
| 20260506051329 | 8 | 225 | 0.0 | 0.0 | 0.00 | 0.00 | 0.00 | 97 | 1015.5 |
| 20260506050841 | 8 | 239 | 0.0 | 1.6 | 0.00 | 0.00 | 0.00 | 97 | 1015.5 |
| 20260506050330 | 8 | 239 | 0.0 | 1.6 | 0.00 | 0.00 | 0.00 | 97 | 1015.4 |
| 20260506044821 | 9 | 239 | 1.6 | 3.2 | 0.00 | 0.00 | 0.00 | 97 | 1015.3 |
| 20260506044315 | 9 | 239 | 0.0 | 3.2 | 0.00 | 0.00 | 0.00 | 97 | 1015.3 |
| 20260506043840 | 9 | 239 | 1.6 | 3.2 | 0.00 | 0.00 | 0.00 | 97 | 1015.3 |
| 20260506043347 | 9 | 239 | 0.0 | 3.2 | 0.00 | 0.00 | 0.00 | 97 | 1015.2 |
| 20260506042837 | 9 | 239 | 0.0 | 3.2 | 0.00 | 0.00 | 0.00 | 96 | 1015.2 |
| 20260506042314 | 10 | 239 | 0.0 | 3.2 | 0.00 | 0.00 | 0.00 | 96 | 1015.2 |
| 20260506041852 | 10 | 239 | 0.0 | 4.8 | 0.00 | 0.00 | 0.00 | 95 | 1014.9 |
| 20260506041330 | 10 | 239 | 3.2 | 4.8 | 0.00 | 0.00 | 0.00 | 96 | 1014.9 |
| 20260506040837 | 10 | 243 | 0.0 | 4.8 | 0.00 | 0.00 | 0.00 | 94 | 1014.9 |
| 20260506040310 | 10 | 325 | 0.0 | 0.0 | 0.00 | 0.00 | 0.00 | 95 | 1014.6 |
| 20260506035834 | 10 | 325 | 0.0 | 0.0 | 0.00 | 0.00 | 0.00 | 94 | 1014.6 |
| 20260506035350 | 10 | 325 | 0.0 | 0.0 | 0.00 | 0.00 | 0.00 | 94 | 1014.6 |
| 20260506034813 | 10 | 325 | 0.0 | 0.0 | 0.00 | 0.00 | 0.00 | 93 | 1014.4 |
| 20260506034314 | 10 | 325 | 0.0 | 0.0 | 0.00 | 0.00 | 0.00 | 93 | 1014.4 |
| 20260506033838 | 11 | 325 | 0.0 | 1.6 | 0.00 | 0.00 | 0.00 | 92 | 1014.4 |
| 20260506033332 | 11 | 325 | 0.0 | 1.6 | 0.00 | 0.00 | 0.00 | 91 | 1014.3 |
| 20260506032812 | 11 | 325 | 0.0 | 1.6 | 0.00 | 0.00 | 0.00 | 90 | 1014.3 |
| 20260506032315 | 12 | 325 | 0.0 | 0.0 | 0.00 | 0.00 | 0.00 | 89 | 1014.3 |
| 20260506031838 | 12 | 325 | 0.0 | 0.0 | 0.00 | 0.00 | 0.00 | 88 | 1014.4 |
| 20260506031331 | 12 | 325 | 0.0 | 0.0 | 0.00 | 0.00 | 0.00 | 87 | 1014.4 |
| 20260506030841 | 12 | 325 | 0.0 | 0.0 | 0.00 | 0.00 | 0.00 | 87 | 1014.4 |
| 20260506030315 | 12 | 325 | 0.0 | 0.0 | 0.00 | 0.00 | 0.00 | 87 | 1014.3 |
| 20260506025850 | 13 | 325 | 0.0 | 1.6 | 0.00 | 0.00 | 0.00 | 86 | 1014.3 |
| 20260506025340 | 13 | 319 | 1.6 | 1.6 | 0.00 | 0.00 | 0.00 | 86 | 1014.3 |
| 20260506024840 | 13 | 325 | 0.0 | 3.2 | 0.00 | 0.00 | 0.00 | 85 | 1014.5 |
| 20260506024359 | 13 | 325 | 1.6 | 3.2 | 0.00 | 0.00 | 0.00 | 85 | 1014.5 |
| 20260506023831 | 13 | 316 | 0.0 | 3.2 | 0.00 | 0.00 | 0.00 | 84 | 1014.5 |
| 20260506023333 | 13 | 307 | 1.6 | 3.2 | 0.00 | 0.00 | 0.00 | 83 | 1014.4 |
| 20260506022829 | 14 | 319 | 0.0 | 3.2 | 0.00 | 0.00 | 0.00 | 81 | 1014.4 |
| 20260506022338 | 15 | 314 | 0.0 | 0.0 | 0.00 | 0.00 | 0.00 | 81 | 1014.4 |
| 20260506021830 | 15 | 347 | 0.0 | 0.0 | 0.00 | 0.00 | 0.00 | 81 | 1014.4 |
| 20260506021321 | 15 | 36 | 0.0 | 1.6 | 0.00 | 0.00 | 0.00 | 81 | 1014.4 |
| 20260506020812 | 15 | 319 | 0.0 | 4.8 | 0.00 | 0.00 | 0.00 | 81 | 1014.4 |
| 20260506020337 | 15 | 72 | 0.0 | 4.8 | 0.00 | 0.00 | 0.00 | 82 | 1014.3 |
| 20260506015832 | 15 | 316 | 0.0 | 4.8 | 0.00 | 0.00 | 0.00 | 81 | 1014.3 |
| 20260506015330 | 15 | 316 | 0.0 | 4.8 | 0.00 | 0.00 | 0.00 | 81 | 1014.3 |
| 20260506014827 | 15 | 328 | 0.0 | 4.8 | 0.00 | 0.00 | 0.00 | 81 | 1014.5 |
| 20260506014325 | 15 | 322 | 0.0 | 4.8 | 0.00 | 0.00 | 0.00 | 82 | 1014.5 |
| 20260506013832 | 15 | 339 | 1.6 | 6.4 | 0.00 | 0.00 | 0.00 | 82 | 1014.5 |
| 20260506013312 | 15 | 307 | 3.2 | 6.4 | 0.00 | 0.00 | 0.00 | 82 | 1014.6 |
| 20260506012809 | 15 | 340 | 3.2 | 6.4 | 0.00 | 0.00 | 0.00 | 82 | 1014.6 |
| 20260506012312 | 15 | 310 | 3.2 | 6.4 | 0.00 | 0.00 | 0.00 | 81 | 1014.6 |
| 20260506011851 | 15 | 299 | 3.2 | 6.4 | 0.00 | 0.00 | 0.00 | 81 | 1014.5 |
| 20260506011328 | 15 | 301 | 3.2 | 4.8 | 0.00 | 0.00 | 0.00 | 81 | 1014.5 |
| 20260506010848 | 15 | 1 | 3.2 | 6.4 | 0.00 | 0.00 | 0.00 | 81 | 1014.5 |
| 20260506010350 | 15 | 337 | 3.2 | 6.4 | 0.00 | 0.00 | 0.00 | 80 | 1014.7 |
| 20260506005811 | 15 | 310 | 1.6 | 8.0 | 0.00 | 0.00 | 0.00 | 80 | 1014.7 |
| 20260506005315 | 15 | 336 | 3.2 | 8.0 | 0.00 | 0.00 | 0.00 | 80 | 1014.7 |
| 20260506004831 | 15 | 289 | 1.6 | 6.4 | 0.00 | 0.00 | 0.00 | 80 | 1014.6 |
| 20260506004321 | 15 | 10 | 0.0 | 4.8 | 0.00 | 0.00 | 0.00 | 81 | 1014.6 |
| 20260506003818 | 15 | 346 | 1.6 | 8.0 | 0.00 | 0.00 | 0.00 | 81 | 1014.6 |
| 20260506003357 | 15 | 300 | 1.6 | 8.0 | 0.00 | 0.00 | 0.00 | 81 | 1014.7 |
| 20260506002830 | 15 | 301 | 3.2 | 6.4 | 0.00 | 0.00 | 0.00 | 81 | 1014.7 |
| 20260506002326 | 15 | 294 | 3.2 | 9.7 | 0.00 | 0.00 | 0.00 | 82 | 1014.7 |
| 20260506001807 | 15 | 312 | 3.2 | 8.0 | 0.00 | 0.00 | 0.00 | 81 | 1014.7 |
| 20260506001331 | 15 | 317 | 3.2 | 8.0 | 0.00 | 0.00 | 0.00 | 81 | 1014.7 |
| 20260506000834 | 15 | 330 | 3.2 | 8.0 | 0.00 | 0.00 | 0.00 | 82 | 1014.7 |
| 20260506000310 | 15 | 330 | 3.2 | 8.0 | 0.00 | 0.00 | 0.00 | 81 | 1014.8 |
| 20260505235813 | 15 | 307 | 4.8 | 9.7 | 0.00 | 0.00 | 0.00 | 83 | 1014.8 |
| 20260505235358 | 15 | 317 | 4.8 | 9.7 | 0.00 | 0.00 | 0.00 | 81 | 1014.8 |
| 20260505234829 | 16 | 309 | 1.6 | 8.0 | 0.00 | 0.00 | 0.00 | 81 | 1015.0 |
| 20260505234306 | 16 | 1 | 3.2 | 8.0 | 0.00 | 0.00 | 0.00 | 80 | 1015.0 |
| 20260505233813 | 16 | 6 | 3.2 | 6.4 | 0.00 | 0.00 | 0.00 | 80 | 1015.0 |
| 20260505233335 | 16 | 327 | 1.6 | 6.4 | 0.00 | 0.00 | 0.00 | 81 | 1015.0 |
| 20260505232838 | 16 | 333 | 0.0 | 4.8 | 0.00 | 0.00 | 0.00 | 81 | 1015.0 |
| 20260505232333 | 16 | 75 | 1.6 | 4.8 | 0.00 | 0.00 | 0.00 | 82 | 1015.0 |
| 20260505231810 | 16 | 91 | 1.6 | 6.4 | 0.00 | 0.00 | 0.00 | 83 | 1015.1 |
| 20260505231336 | 16 | 16 | 1.6 | 6.4 | 0.00 | 0.00 | 0.00 | 81 | 1015.1 |
| 20260505230850 | 16 | 20 | 0.0 | 4.8 | 0.00 | 0.00 | 0.00 | 82 | 1015.1 |
| 20260505230326 | 16 | 54 | 1.6 | 4.8 | 0.00 | 0.00 | 0.00 | 84 | 1015.2 |
| 20260505225816 | 16 | 6 | 1.6 | 4.8 | 0.00 | 0.00 | 0.00 | 83 | 1015.2 |
| 20260505225317 | 16 | 118 | 0.0 | 4.8 | 0.00 | 0.00 | 0.00 | 85 | 1015.2 |
| 20260505224836 | 16 | 79 | 1.6 | 8.0 | 0.00 | 0.00 | 0.00 | 82 | 1015.3 |
| 20260505224331 | 16 | 21 | 0.0 | 8.0 | 0.00 | 0.00 | 0.00 | 84 | 1015.3 |
| 20260505223855 | 16 | 20 | 0.0 | 6.4 | 0.00 | 0.00 | 0.00 | 83 | 1015.3 |
| 20260505223324 | 16 | 56 | 1.6 | 6.4 | 0.00 | 0.00 | 0.00 | 84 | 1015.2 |
| 20260505222815 | 16 | 306 | 1.6 | 6.4 | 0.00 | 0.00 | 0.00 | 85 | 1015.2 |
| 20260505222332 | 16 | 337 | 3.2 | 6.4 | 0.00 | 0.00 | 0.00 | 85 | 1015.2 |
| 20260505221831 | 16 | 50 | 0.0 | 4.8 | 0.00 | 0.00 | 0.00 | 85 | 1015.3 |
| 20260505221331 | 16 | 62 | 1.6 | 4.8 | 0.00 | 0.00 | 0.00 | 85 | 1015.3 |
| 20260505220816 | 16 | 151 | 0.0 | 3.2 | 0.00 | 0.00 | 0.00 | 86 | 1015.3 |
| 20260505220333 | 15 | 18 | 0.0 | 6.4 | 0.00 | 0.00 | 0.00 | 86 | 1015.4 |
| 20260505215825 | 15 | 356 | 1.6 | 6.4 | 0.00 | 0.00 | 0.00 | 88 | 1015.4 |
| 20260505215321 | 15 | 20 | 3.2 | 3.2 | 0.00 | 0.00 | 0.00 | 88 | 1015.4 |
| 20260505214829 | 15 | 309 | 0.0 | 3.2 | 0.00 | 0.00 | 0.00 | 90 | 1015.7 |
| 20260505214326 | 15 | 176 | 0.0 | 4.8 | 0.00 | 0.00 | 0.00 | 90 | 1015.7 |
| 20260505213821 | 14 | 188 | 1.6 | 4.8 | 0.00 | 0.00 | 0.00 | 91 | 1015.7 |
| 20260505213338 | 14 | 155 | 1.6 | 4.8 | 0.00 | 0.00 | 0.00 | 91 | 1015.8 |
| 20260505212827 | 13 | 163 | 1.6 | 3.2 | 0.00 | 0.00 | 0.00 | 93 | 1015.8 |
| 20260505212324 | 13 | 236 | 0.0 | 4.8 | 0.00 | 0.00 | 0.00 | 93 | 1015.8 |
| 20260505211835 | 13 | 6 | 3.2 | 4.8 | 0.00 | 0.00 | 0.00 | 93 | 1015.7 |
| 20260505211308 | 13 | 272 | 0.0 | 3.2 | 0.00 | 0.00 | 0.00 | 94 | 1015.7 |
| 20260505210833 | 13 | 297 | 0.0 | 6.4 | 0.00 | 0.00 | 0.00 | 94 | 1015.7 |
| 20260505210325 | 13 | 349 | 3.2 | 6.4 | 0.00 | 0.00 | 0.00 | 95 | 1015.7 |
| 20260505205820 | 13 | 301 | 0.0 | 0.0 | 0.00 | 0.00 | 0.00 | 95 | 1015.7 |
| 20260505205334 | 13 | 45 | 0.0 | 4.8 | 0.00 | 0.00 | 0.00 | 95 | 1015.7 |
| 20260505204827 | 13 | 51 | 1.6 | 4.8 | 0.00 | 0.00 | 0.00 | 95 | 1015.8 |
| 20260505204318 | 12 | 346 | 0.0 | 0.0 | 0.00 | 0.00 | 0.00 | 97 | 1015.8 |
| 20260505203834 | 12 | 273 | 0.0 | 3.2 | 0.00 | 0.00 | 0.00 | 97 | 1015.8 |
| 20260505203330 | 12 | 13 | 0.0 | 4.8 | 0.00 | 0.00 | 0.00 | 97 | 1015.8 |
| 20260505202847 | 12 | 6 | 1.6 | 4.8 | 0.00 | 0.00 | 0.00 | 98 | 1015.8 |
| 20260505202350 | 12 | 306 | 0.0 | 3.2 | 0.00 | 0.00 | 0.00 | 98 | 1015.8 |
| 20260505201823 | 12 | 266 | 0.0 | 0.0 | 0.00 | 0.00 | 0.00 | 99 | 1015.8 |
| 20260505201309 | 12 | 345 | 0.0 | 3.2 | 0.00 | 0.00 | 0.00 | 100 | 1015.8 |
| 20260505200831 | 11 | 81 | 0.0 | 3.2 | 0.00 | 0.00 | 0.00 | 100 | 1015.8 |
| 20260505200340 | 11 | 81 | 0.0 | 3.2 | 0.00 | 0.00 | 0.00 | 100 | 1015.8 |
| 20260505195812 | 11 | 66 | 1.6 | 3.2 | 0.00 | 0.00 | 0.00 | 100 | 1015.8 |
| 20260505195333 | 11 | 77 | 0.0 | 3.2 | 0.00 | 0.00 | 0.00 | 100 | 1015.8 |
| 20260505194826 | 11 | 329 | 0.0 | 3.2 | 0.00 | 0.00 | 0.00 | 100 | 1015.8 |
| 20260505194317 | 11 | 307 | 0.0 | 1.6 | 0.00 | 0.00 | 0.00 | 100 | 1015.8 |
| 20260505193837 | 11 | 324 | 0.0 | 3.2 | 0.00 | 0.00 | 0.00 | 100 | 1015.8 |
| 20260505193329 | 11 | 324 | 1.6 | 3.2 | 0.00 | 0.00 | 0.00 | 100 | 1015.8 |
| 20260505192842 | 11 | 340 | 0.0 | 3.2 | 0.00 | 0.00 | 0.00 | 100 | 1015.8 |
| 20260505192319 | 11 | 308 | 0.0 | 4.8 | 0.00 | 0.00 | 0.00 | 100 | 1015.8 |
| 20260505191819 | 11 | 311 | 1.6 | 4.8 | 0.00 | 0.00 | 0.00 | 100 | 1015.7 |
| 20260505191337 | 11 | 356 | 0.0 | 3.2 | 0.00 | 0.00 | 0.00 | 100 | 1015.7 |
| 20260505190826 | 11 | 62 | 1.6 | 3.2 | 0.00 | 0.00 | 0.00 | 100 | 1015.7 |
| 20260505190307 | 11 | 299 | 0.0 | 3.2 | 0.00 | 0.00 | 0.00 | 100 | 1015.6 |
| 20260505185828 | 11 | 304 | 1.6 | 3.2 | 0.00 | 0.00 | 0.00 | 100 | 1015.6 |
| 20260505185331 | 11 | 323 | 0.0 | 3.2 | 0.00 | 0.00 | 0.00 | 100 | 1015.6 |
| 20260505184825 | 11 | 133 | 0.0 | 3.2 | 0.00 | 0.00 | 0.00 | 100 | 1015.7 |
| 20260505184323 | 11 | 316 | 1.6 | 3.2 | 0.00 | 0.00 | 0.00 | 100 | 1015.7 |
| 20260505183901 | 11 | 333 | 0.0 | 3.2 | 0.00 | 0.00 | 0.00 | 100 | 1015.7 |
| 20260505183333 | 11 | 343 | 0.0 | 3.2 | 0.00 | 0.00 | 0.00 | 100 | 1015.7 |
| 20260505182810 | 11 | 12 | 1.6 | 3.2 | 0.00 | 0.00 | 0.00 | 100 | 1015.7 |
| 20260505182335 | 11 | 87 | 0.0 | 3.2 | 0.00 | 0.00 | 0.00 | 100 | 1015.7 |
| 20260505181815 | 11 | 79 | 1.6 | 3.2 | 0.00 | 0.00 | 0.00 | 100 | 1015.4 |
| 20260505181312 | 11 | 35 | 0.0 | 3.2 | 0.00 | 0.00 | 0.00 | 100 | 1015.4 |
| 20260505180837 | 11 | 35 | 0.0 | 3.2 | 0.00 | 0.00 | 0.00 | 100 | 1015.4 |
| 20260505180327 | 11 | 93 | 0.0 | 3.2 | 0.00 | 0.00 | 0.00 | 100 | 1015.3 |
| 20260505175807 | 11 | 81 | 0.0 | 3.2 | 0.00 | 0.00 | 0.00 | 100 | 1015.3 |
| 20260505175344 | 11 | 69 | 0.0 | 3.2 | 0.00 | 0.00 | 0.00 | 100 | 1015.3 |
| 20260505174834 | 11 | 91 | 0.0 | 3.2 | 0.00 | 0.00 | 0.00 | 100 | 1015.3 |
| 20260505174327 | 11 | 91 | 0.0 | 3.2 | 0.00 | 0.00 | 0.00 | 100 | 1015.3 |
| 20260505173824 | 11 | 91 | 0.0 | 3.2 | 0.00 | 0.00 | 0.00 | 100 | 1015.3 |
| 20260505173335 | 11 | 91 | 0.0 | 3.2 | 0.00 | 0.00 | 0.00 | 100 | 1015.2 |
| 20260505172811 | 10 | 68 | 1.6 | 3.2 | 0.00 | 0.00 | 0.00 | 100 | 1015.2 |
| 20260505172330 | 10 | 96 | 0.0 | 3.2 | 0.00 | 0.00 | 0.00 | 100 | 1015.2 |
| 20260505171823 | 10 | 64 | 0.0 | 1.6 | 0.00 | 0.00 | 0.00 | 100 | 1015.2 |
| 20260505171331 | 10 | 64 | 0.0 | 1.6 | 0.00 | 0.00 | 0.00 | 100 | 1015.2 |
| 20260505170845 | 10 | 68 | 0.0 | 0.0 | 0.00 | 0.00 | 0.00 | 100 | 1015.2 |
| 20260505170336 | 10 | 93 | 0.0 | 0.0 | 0.00 | 0.00 | 0.00 | 100 | 1015.3 |
| 20260505165824 | 10 | 93 | 0.0 | 0.0 | 0.00 | 0.00 | 0.00 | 100 | 1015.3 |
| 20260505165335 | 10 | 83 | 0.0 | 0.0 | 0.00 | 0.00 | 0.00 | 100 | 1015.3 |
| 20260505164809 | 10 | 83 | 0.0 | 0.0 | 0.00 | 0.00 | 0.00 | 100 | 1015.2 |
| 20260505164335 | 10 | 83 | 0.0 | 0.0 | 0.00 | 0.00 | 0.00 | 100 | 1015.2 |
| 20260505163808 | 10 | 44 | 0.0 | 0.0 | 0.00 | 0.00 | 0.00 | 100 | 1015.2 |
| 20260505163330 | 10 | 44 | 0.0 | 0.0 | 0.00 | 0.00 | 0.00 | 100 | 1015.1 |
| 20260505162824 | 10 | 356 | 0.0 | 3.2 | 0.00 | 0.00 | 0.00 | 100 | 1015.1 |
| 20260505162323 | 10 | 356 | 0.0 | 3.2 | 0.00 | 0.00 | 0.00 | 100 | 1015.1 |
| 20260505161806 | 10 | 352 | 0.0 | 3.2 | 0.00 | 0.00 | 0.00 | 100 | 1014.9 |
| 20260505161311 | 10 | 352 | 0.0 | 3.2 | 0.00 | 0.00 | 0.00 | 100 | 1014.9 |
| 20260505160829 | 10 | 352 | 0.0 | 3.2 | 0.00 | 0.00 | 0.00 | 100 | 1014.9 |
| 20260505160348 | 10 | 314 | 0.0 | 3.2 | 0.00 | 0.00 | 0.00 | 100 | 1015.0 |
| 20260505153323 | 10 | 97 | 0.0 | 3.2 | 0.00 | 0.00 | 0.00 | 100 | 1014.8 |
| 20260505152821 | 10 | 72 | 0.0 | 3.2 | 0.00 | 0.00 | 0.00 | 100 | 1014.8 |
| 20260505152310 | 10 | 72 | 0.0 | 3.2 | 0.00 | 0.00 | 0.00 | 100 | 1014.8 |
| 20260505151828 | 10 | 72 | 0.0 | 3.2 | 0.00 | 0.00 | 0.00 | 100 | 1014.6 |
| 20260505151320 | 10 | 72 | 0.0 | 3.2 | 0.00 | 0.00 | 0.00 | 100 | 1014.6 |
| 20260505150817 | 10 | 72 | 0.0 | 3.2 | 0.00 | 0.00 | 0.00 | 100 | 1014.6 |
| 20260505150359 | 10 | 72 | 0.0 | 3.2 | 0.00 | 0.00 | 0.00 | 100 | 1014.4 |
| 20260505140318 | 10 | 117 | 0.0 | 3.2 | 0.00 | 0.00 | 0.00 | 100 | 1013.8 |